QPF
0.03 0.03 0.03 0.04 0.05 0.06 0.08 0.06 0.05 0.05 0.05 0.05 0.07 0.10 0.10 0.08 0.08 0.08 0.06 0.06 0.05 0.06 0.07 0.08 0.08 0.08 0.09 0.09 0.09 0.12 0.18 0.20 0.15 0.09 0.05 0.05 0.06 0.09 0.10 0.10 0.11 0.09 0.07
0.05 0.05 0.06 0.05 0.04 0.05 0.05 0.06 0.06 0.06 0.05 0.05 0.06 0.07 0.07 0.06 0.06 0.06 0.04 0.05 0.05 0.04 0.05 0.05 0.06 0.06 0.07 0.08 0.08 0.09 0.12 0.21 0.26 0.20 0.10 0.06 0.06 0.08 0.08 0.09 0.10 0.10 0.09
0.06 0.08 0.09 0.07 0.05 0.04 0.04 0.05 0.06 0.06 0.05 0.04 0.04 0.04 0.05 0.06 0.06 0.06 0.05 0.04 0.04 0.03 0.03 0.03 0.04 0.04 0.04 0.05 0.09 0.09 0.08 0.11 0.20 0.25 0.17 0.09 0.07 0.08 0.09 0.09 0.10 0.09 0.08
0.02 0.04 0.06 0.07 0.07 0.07 0.06 0.05 0.05 0.05 0.04 0.04 0.04 0.05 0.04 0.06 0.06 0.06 0.05 0.04 0.03 0.03 0.03 0.02 0.04 0.04 0.05 0.04 0.05 0.08 0.08 0.09 0.10 0.14 0.13 0.09 0.05 0.06 0.09 0.09 0.08 0.09 0.08
0.01 0.02 0.03 0.04 0.04 0.05 0.08 0.09 0.06 0.04 0.04 0.04 0.04 0.04 0.04 0.04 0.04 0.04 0.05 0.03 0.03 0.02 0.02 0.04 0.04 0.04 0.05 0.05 0.05 0.05 0.07 0.08 0.11 0.11 0.09 0.07 0.06 0.05 0.08 0.11 0.09 0.08 0.08
0.02 0.03 0.03 0.03 0.02 0.02 0.03 0.07 0.09 0.07 0.04 0.03 0.03 0.02 0.03 0.03 0.03 0.03 0.03 0.03 0.02 0.02 0.02 0.03 0.03 0.03 0.04 0.05 0.05 0.05 0.05 0.04 0.08 0.15 0.13 0.11 0.09 0.07 0.07 0.09 0.11 0.08 0.07
0.03 0.04 0.04 0.04 0.03 0.02 0.02 0.03 0.04 0.05 0.05 0.04 0.04 0.04 0.04 0.05 0.05 0.05 0.04 0.04 0.03 0.03 0.03 0.02 0.02 0.03 0.03 0.04 0.05 0.05 0.06 0.04 0.03 0.09 0.11 0.09 0.09 0.09 0.08 0.07 0.10 0.09 0.07
0.04 0.04 0.04 0.03 0.03 0.02 0.02 0.02 0.03 0.03 0.03 0.05 0.06 0.06 0.06 0.08 0.08 0.07 0.06 0.04 0.03 0.03 0.03 0.02 0.02 0.03 0.05 0.06 0.04 0.04 0.04 0.05 0.04 0.06 0.09 0.07 0.05 0.05 0.07 0.08 0.10 0.11 0.10
0.03 0.03 0.03 0.03 0.02 0.02 0.02 0.02 0.03 0.03 0.04 0.04 0.05 0.07 0.08 0.09 0.10 0.11 0.10 0.08 0.07 0.06 0.04 0.03 0.03 0.03 0.04 0.06 0.07 0.05 0.03 0.04 0.04 0.05 0.07 0.09 0.07 0.04 0.04 0.04 0.07 0.09 0.10
0.02 0.02 0.02 0.02 0.02 0.01 0.02 0.02 0.02 0.04 0.05 0.04 0.04 0.04 0.05 0.05 0.07 0.10 0.10 0.08 0.07 0.06 0.05 0.04 0.03 0.03 0.03 0.04 0.04 0.02 0.02 0.03 0.04 0.04 0.04 0.07 0.08 0.05 0.04 0.03 0.03 0.04 0.05
0.02 0.02 0.02 0.02 0.02 0.03 0.03 0.02 0.03 0.04 0.04 0.04 0.04 0.04 0.05 0.05 0.05 0.06 0.07 0.05 0.04 0.03 0.02 0.02 0.02 0.02 0.03 0.02 0.02 0.02 0.02 0.02 0.02 0.03 0.03 0.05 0.07 0.07 0.05 0.04 0.04 0.04 0.03
0.04 0.03 0.03 0.03 0.03 0.04 0.04 0.03 0.04 0.04 0.04 0.04 0.04 0.05 0.05 0.05 0.05 0.06 0.06 0.06 0.04 0.03 0.02 0.02 0.01 0.01 0.02 0.02 0.01 0.01 0.01 0.01 0.01 0.02 0.03 0.04 0.06 0.07 0.05 0.04 0.05 0.05 0.04
0.04 0.03 0.03 0.03 0.04 0.04 0.05 0.06 0.07 0.06 0.05 0.05 0.05 0.06 0.07 0.06 0.06 0.06 0.07 0.06 0.04 0.03 0.03 0.02 0.01 0.01 0.01 0.02 0.02 0.01 0.01 0.01 0.01 0.02 0.02 0.03 0.06 0.09 0.08 0.04 0.05 0.04 0.03
0.03 0.02 0.02 0.03 0.05 0.05 0.04 0.04 0.05 0.06 0.07 0.08 0.08 0.08 0.08 0.07 0.07 0.06 0.06 0.06 0.05 0.05 0.04 0.03 0.01 0.01 0.02 0.02 0.02 0.01 0.01 0.01 0.01 0.01 0.02 0.03 0.05 0.09 0.11 0.07 0.05 0.05 0.04
0.02 0.02 0.02 0.02 0.02 0.02 0.03 0.03 0.03 0.04 0.05 0.06 0.07 0.08 0.08 0.09 0.09 0.07 0.06 0.06 0.06 0.06 0.05 0.04 0.03 0.02 0.02 0.03 0.02 0.02 0.02 0.02 0.01 0.01 0.02 0.03 0.04 0.08 0.13 0.09 0.06 0.05 0.03
0.03 0.02 0.02 0.02 0.02 0.02 0.02 0.03 0.03 0.04 0.05 0.05 0.06 0.06 0.07 0.07 0.08 0.07 0.06 0.05 0.05 0.04 0.04 0.04 0.05 0.03 0.03 0.02 0.02 0.02 0.03 0.02 0.01 0.01 0.02 0.03 0.03 0.04 0.08 0.08 0.06 0.04 0.02
0.03 0.02 0.02 0.02 0.02 0.02 0.03 0.04 0.04 0.04 0.04 0.05 0.05 0.05 0.06 0.06 0.06 0.07 0.06 0.05 0.05 0.04 0.04 0.05 0.06 0.04 0.04 0.04 0.03 0.03 0.03 0.03 0.02 0.02 0.02 0.02 0.02 0.02 0.04 0.05 0.04 0.03 0.02
0.03 0.03 0.03 0.02 0.02 0.02 0.03 0.03 0.03 0.02 0.03 0.03 0.03 0.03 0.05 0.06 0.06 0.06 0.06 0.05 0.05 0.05 0.05 0.05 0.05 0.05 0.05 0.06 0.05 0.05 0.03 0.02 0.02 0.02 0.03 0.02 0.02 0.02 0.03 0.04 0.04 0.03 0.03
0.03 0.03 0.03 0.03 0.02 0.02 0.03 0.03 0.03 0.04 0.04 0.03 0.03 0.03 0.04 0.05 0.04 0.06 0.06 0.06 0.05 0.05 0.06 0.05 0.06 0.05 0.05 0.05 0.05 0.05 0.03 0.03 0.01 0.02 0.03 0.03 0.03 0.03 0.03 0.03 0.03 0.03 0.03
0.02 0.02 0.03 0.03 0.03 0.03 0.03 0.03 0.03 0.03 0.04 0.04 0.04 0.04 0.04 0.04 0.04 0.05 0.05 0.06 0.06 0.06 0.05 0.05 0.05 0.05 0.05 0.04 0.05 0.05 0.04 0.03 0.02 0.02 0.03 0.04 0.03 0.04 0.04 0.04 0.03 0.03 0.03
0.03 0.03 0.03 0.03 0.04 0.04 0.03 0.04 0.03 0.02 0.02 0.03 0.03 0.03 0.02 0.03 0.04 0.04 0.04 0.05 0.06 0.06 0.05 0.05 0.05 0.05 0.05 0.06 0.05 0.05 0.05 0.04 0.03 0.03 0.03 0.04 0.03 0.03 0.04 0.05 0.05 0.04 0.04
0.04 0.03 0.03 0.04 0.04 0.04 0.04 0.03 0.03 0.03 0.02 0.02 0.03 0.03 0.02 0.02 0.02 0.03 0.03 0.04 0.05 0.05 0.05 0.05 0.05 0.04 0.04 0.04 0.06 0.05 0.05 0.04 0.03 0.03 0.04 0.05 0.04 0.04 0.05 0.05 0.06 0.05 0.04
0.04 0.03 0.03 0.04 0.03 0.04 0.03 0.03 0.02 0.02 0.02 0.02 0.02 0.02 0.01 0.01 0.03 0.04 0.04 0.04 0.05 0.05 0.06 0.06 0.06 0.05 0.04 0.04 0.05 0.05 0.06 0.05 0.04 0.04 0.04 0.05 0.04 0.04 0.04 0.05 0.06 0.05 0.05
0.05 0.04 0.03 0.03 0.03 0.03 0.02 0.01 0.01 0.01 0.02 0.01 0.01 0.02 0.02 0.02 0.02 0.03 0.03 0.04 0.05 0.04 0.03 0.03 0.04 0.05 0.05 0.05 0.05 0.05 0.06 0.06 0.05 0.04 0.04 0.05 0.04 0.04 0.04 0.04 0.04 0.04 0.04
0.05 0.04 0.03 0.02 0.03 0.03 0.02 0.01 0.01 0.01 0.02 0.02 0.03 0.03 0.03 0.03 0.03 0.04 0.03 0.04 0.04 0.02 0.02 0.02 0.02 0.03 0.03 0.04 0.04 0.05 0.05 0.05 0.04 0.04 0.03 0.04 0.04 0.03 0.04 0.03 0.03 0.02 0.02
0.05 0.04 0.03 0.03 0.02 0.02 0.01 0.01 0.01 0.02 0.03 0.04 0.05 0.05 0.05 0.05 0.05 0.04 0.04 0.04 0.04 0.02 0.02 0.02 0.03 0.02 0.02 0.02 0.02 0.03 0.05 0.05 0.05 0.04 0.03 0.03 0.03 0.03 0.03 0.02 0.02 0.02 0.02
MSLP
1014.77 1015.00 1015.18 1015.32 1015.45 1015.56 1015.67 1015.77 1015.85 1015.91 1015.93 1015.93 1015.91 1015.91 1015.93 1016.02 1016.17 1016.39 1016.65 1016.92 1017.17 1017.36 1017.47 1017.50 1017.45 1017.34 1017.21 1017.08 1016.98 1016.93 1016.94 1017.00 1017.12 1017.29 1017.51 1017.77 1018.07 1018.40 1018.75 1019.10 1019.42 1019.71 1019.96
1014.87 1015.10 1015.29 1015.46 1015.60 1015.74 1015.88 1016.00 1016.11 1016.20 1016.25 1016.27 1016.26 1016.26 1016.26 1016.31 1016.41 1016.56 1016.76 1016.98 1017.20 1017.38 1017.50 1017.56 1017.55 1017.48 1017.36 1017.21 1017.05 1016.90 1016.78 1016.69 1016.67 1016.72 1016.85 1017.07 1017.38 1017.77 1018.21 1018.67 1019.12 1019.52 1019.87
1014.93 1015.17 1015.38 1015.56 1015.73 1015.90 1016.07 1016.23 1016.38 1016.50 1016.58 1016.62 1016.63 1016.61 1016.59 1016.59 1016.62 1016.70 1016.82 1016.96 1017.12 1017.28 1017.41 1017.49 1017.51 1017.46 1017.35 1017.18 1016.97 1016.72 1016.46 1016.23 1016.05 1015.97 1016.02 1016.20 1016.52 1016.97 1017.51 1018.10 1018.68 1019.22 1019.68
1014.94 1015.18 1015.40 1015.60 1015.81 1016.01 1016.21 1016.41 1016.59 1016.74 1016.86 1016.92 1016.94 1016.93 1016.88 1016.84 1016.80 1016.79 1016.82 1016.88 1016.97 1017.08 1017.19 1017.28 1017.32 1017.30 1017.20 1017.01 1016.74 1016.41 1016.03 1015.67 1015.36 1015.16 1015.13 1015.27 1015.61 1016.11 1016.75 1017.46 1018.18 1018.84 1019.42
1014.91 1015.14 1015.37 1015.59 1015.81 1016.04 1016.27 1016.49 1016.70 1016.89 1017.04 1017.14 1017.18 1017.17 1017.12 1017.04 1016.94 1016.86 1016.79 1016.76 1016.78 1016.82 1016.89 1016.97 1017.02 1017.01 1016.92 1016.73 1016.43 1016.03 1015.57 1015.10 1014.69 1014.40 1014.29 1014.41 1014.75 1015.31 1016.02 1016.84 1017.67 1018.45 1019.12
1014.84 1015.07 1015.30 1015.54 1015.77 1016.01 1016.26 1016.50 1016.73 1016.94 1017.11 1017.24 1017.32 1017.33 1017.29 1017.19 1017.06 1016.91 1016.76 1016.65 1016.57 1016.54 1016.56 1016.60 1016.64 1016.65 1016.57 1016.38 1016.08 1015.66 1015.15 1014.62 1014.14 1013.78 1013.62 1013.71 1014.05 1014.63 1015.40 1016.29 1017.20 1018.07 1018.82
1014.78 1015.01 1015.25 1015.49 1015.73 1015.97 1016.21 1016.44 1016.67 1016.89 1017.08 1017.24 1017.35 1017.40 1017.39 1017.30 1017.16 1016.97 1016.76 1016.56 1016.39 1016.29 1016.24 1016.24 1016.26 1016.26 1016.21 1016.05 1015.76 1015.35 1014.85 1014.29 1013.77 1013.38 1013.17 1013.22 1013.54 1014.12 1014.91 1015.83 1016.79 1017.70 1018.51
1014.75 1014.98 1015.22 1015.46 1015.70 1015.93 1016.15 1016.36 1016.57 1016.78 1016.98 1017.17 1017.31 1017.41 1017.43 1017.38 1017.24 1017.03 1016.78 1016.52 1016.28 1016.09 1015.97 1015.92 1015.91 1015.92 1015.89 1015.77 1015.53 1015.16 1014.68 1014.13 1013.61 1013.18 1012.94 1012.94 1013.21 1013.76 1014.52 1015.43 1016.40 1017.34 1018.18
1014.73 1014.98 1015.23 1015.47 1015.70 1015.91 1016.10 1016.27 1016.45 1016.64 1016.83 1017.03 1017.21 1017.35 1017.43 1017.42 1017.31 1017.11 1016.84 1016.53 1016.22 1015.96 1015.78 1015.68 1015.65 1015.65 1015.65 1015.58 1015.39 1015.08 1014.65 1014.13 1013.61 1013.16 1012.87 1012.81 1013.02 1013.50 1014.20 1015.07 1016.02 1016.95 1017.80
1014.69 1014.95 1015.22 1015.47 1015.69 1015.88 1016.03 1016.17 1016.31 1016.46 1016.64 1016.83 1017.04 1017.23 1017.36 1017.41 1017.35 1017.18 1016.91 1016.58 1016.23 1015.92 1015.68 1015.53 1015.48 1015.48 1015.50 1015.47 1015.35 1015.10 1014.72 1014.24 1013.72 1013.25 1012.91 1012.78 1012.90 1013.28 1013.90 1014.70 1015.60 1016.51 1017.37
1014.56 1014.84 1015.12 1015.39 1015.61 1015.78 1015.91 1016.01 1016.10 1016.22 1016.37 1016.57 1016.80 1017.02 1017.21 1017.32 1017.32 1017.19 1016.95 1016.63 1016.27 1015.92 1015.64 1015.46 1015.39 1015.39 1015.42 1015.43 1015.36 1015.17 1014.84 1014.39 1013.89 1013.39 1013.00 1012.79 1012.82 1013.09 1013.61 1014.32 1015.16 1016.05 1016.91
1014.27 1014.57 1014.87 1015.15 1015.38 1015.55 1015.66 1015.74 1015.80 1015.88 1016.02 1016.21 1016.45 1016.71 1016.95 1017.12 1017.19 1017.12 1016.93 1016.63 1016.28 1015.93 1015.64 1015.44 1015.34 1015.34 1015.39 1015.43 1015.40 1015.26 1014.98 1014.57 1014.07 1013.57 1013.13 1012.85 1012.78 1012.96 1013.38 1014.00 1014.77 1015.61 1016.46
1013.78 1014.10 1014.42 1014.72 1014.97 1015.15 1015.26 1015.32 1015.36 1015.42 1015.54 1015.72 1015.97 1016.26 1016.55 1016.78 1016.92 1016.92 1016.79 1016.54 1016.23 1015.90 1015.61 1015.40 1015.31 1015.31 1015.37 1015.43 1015.44 1015.34 1015.11 1014.74 1014.27 1013.77 1013.32 1012.99 1012.85 1012.94 1013.27 1013.81 1014.50 1015.30 1016.12
1013.11 1013.43 1013.77 1014.09 1014.36 1014.56 1014.68 1014.74 1014.78 1014.83 1014.93 1015.11 1015.36 1015.67 1015.99 1016.28 1016.49 1016.56 1016.51 1016.33 1016.07 1015.78 1015.52 1015.33 1015.24 1015.25 1015.32 1015.41 1015.45 1015.40 1015.22 1014.91 1014.49 1014.03 1013.59 1013.26 1013.09 1013.12 1013.38 1013.84 1014.46 1015.19 1015.96
1012.32 1012.63 1012.98 1013.31 1013.60 1013.82 1013.96 1014.03 1014.07 1014.12 1014.21 1014.38 1014.64 1014.95 1015.31 1015.64 1015.90 1016.05 1016.07 1015.97 1015.79 1015.56 1015.34 1015.18 1015.11 1015.14 1015.22 1015.34 1015.42 1015.42 1015.31 1015.08 1014.75 1014.36 1013.99 1013.69 1013.53 1013.54 1013.76 1014.15 1014.70 1015.34 1016.04
1011.52 1011.81 1012.14 1012.48 1012.78 1013.01 1013.16 1013.25 1013.29 1013.34 1013.42 1013.58 1013.82 1014.14 1014.50 1014.87 1015.18 1015.40 1015.50 1015.48 1015.38 1015.22 1015.06 1014.94 1014.90 1014.95 1015.06 1015.20 1015.33 1015.40 1015.37 1015.25 1015.03 1014.76 1014.48 1014.27 1014.16 1014.19 1014.39 1014.73 1015.21 1015.76 1016.35
1010.81 1011.07 1011.37 1011.69 1011.99 1012.22 1012.38 1012.47 1012.51 1012.54 1012.61 1012.75 1012.97 1013.27 1013.63 1014.01 1014.36 1014.63 1014.80 1014.87 1014.85 1014.77 1014.68 1014.61 1014.61 1014.68 1014.81 1014.99 1015.16 1015.30 1015.38 1015.37 1015.29 1015.16 1015.02 1014.92 1014.90 1014.99 1015.19 1015.50 1015.90 1016.36 1016.84
1010.28 1010.49 1010.75 1011.04 1011.30 1011.52 1011.66 1011.73 1011.76 1011.77 1011.81 1011.91 1012.10 1012.38 1012.73 1013.10 1013.48 1013.80 1014.04 1014.18 1014.24 1014.24 1014.22 1014.20 1014.24 1014.33 1014.49 1014.70 1014.92 1015.12 1015.29 1015.40 1015.46 1015.48 1015.49 1015.52 1015.61 1015.76 1015.99 1016.29 1016.64 1017.01 1017.38
1009.95 1010.10 1010.31 1010.54 1010.75 1010.92 1011.03 1011.07 1011.07 1011.04 1011.04 1011.10 1011.25 1011.49 1011.81 1012.18 1012.57 1012.92 1013.22 1013.44 1013.58 1013.65 1013.70 1013.74 1013.81 1013.93 1014.11 1014.33 1014.58 1014.84 1015.08 1015.29 1015.47 1015.62 1015.77 1015.93 1016.12 1016.35 1016.62 1016.92 1017.24 1017.55 1017.83
1009.79 1009.87 1010.01 1010.16 1010.31 1010.42 1010.48 1010.47 1010.42 1010.35 1010.30 1010.32 1010.42 1010.62 1010.90 1011.26 1011.65 1012.04 1012.38 1012.66 1012.88 1013.03 1013.14 1013.23 1013.34 1013.48 1013.67 1013.90 1014.16 1014.44 1014.73 1015.00 1015.27 1015.53 1015.78 1016.05 1016.33 1016.63 1016.94 1017.26 1017.57 1017.85 1018.10
1009.72 1009.73 1009.79 1009.86 1009.94 1009.98 1009.97 1009.90 1009.80 1009.68 1009.59 1009.55 1009.60 1009.76 1010.01 1010.35 1010.74 1011.15 1011.53 1011.87 1012.15 1012.37 1012.55 1012.69 1012.84 1012.99 1013.18 1013.41 1013.66 1013.94 1014.24 1014.55 1014.86 1015.17 1015.49 1015.82 1016.16 1016.52 1016.88 1017.23 1017.55 1017.85 1018.10
1009.66 1009.60 1009.58 1009.58 1009.57 1009.54 1009.47 1009.35 1009.19 1009.03 1008.89 1008.81 1008.82 1008.93 1009.15 1009.47 1009.85 1010.27 1010.68 1011.07 1011.40 1011.69 1011.92 1012.12 1012.29 1012.47 1012.66 1012.87 1013.11 1013.37 1013.66 1013.95 1014.27 1014.59 1014.93 1015.29 1015.66 1016.05 1016.44 1016.83 1017.20 1017.54 1017.85
1009.55 1009.43 1009.34 1009.27 1009.20 1009.11 1008.99 1008.82 1008.63 1008.43 1008.25 1008.13 1008.10 1008.17 1008.35 1008.63 1008.99 1009.40 1009.83 1010.24 1010.62 1010.96 1011.24 1011.49 1011.70 1011.90 1012.10 1012.30 1012.52 1012.76 1013.01 1013.28 1013.57 1013.88 1014.20 1014.55 1014.93 1015.33 1015.74 1016.16 1016.59 1016.99 1017.38
1009.39 1009.22 1009.08 1008.96 1008.85 1008.73 1008.57 1008.38 1008.16 1007.94 1007.73 1007.57 1007.49 1007.51 1007.64 1007.87 1008.19 1008.57 1008.98 1009.40 1009.80 1010.16 1010.49 1010.77 1011.03 1011.26 1011.47 1011.69 1011.91 1012.13 1012.36 1012.59 1012.85 1013.12 1013.41 1013.73 1014.09 1014.48 1014.90 1015.35 1015.82 1016.30 1016.77
1009.19 1009.00 1008.84 1008.71 1008.58 1008.45 1008.28 1008.09 1007.86 1007.62 1007.39 1007.19 1007.06 1007.02 1007.08 1007.24 1007.48 1007.80 1008.16 1008.55 1008.93 1009.30 1009.65 1009.96 1010.25 1010.52 1010.77 1011.01 1011.25 1011.48 1011.70 1011.93 1012.16 1012.40 1012.66 1012.94 1013.27 1013.64 1014.06 1014.52 1015.03 1015.56 1016.10
1009.02 1008.83 1008.69 1008.57 1008.46 1008.34 1008.19 1008.00 1007.78 1007.53 1007.27 1007.04 1006.85 1006.73 1006.69 1006.75 1006.89 1007.12 1007.39 1007.71 1008.04 1008.39 1008.72 1009.05 1009.37 1009.67 1009.97 1010.26 1010.53 1010.80 1011.05 1011.29 1011.52 1011.75 1011.98 1012.25 1012.54 1012.88 1013.28 1013.74 1014.25 1014.81 1015.39
Thickness
5747 5746 5744 5742 5743 5743 5742 5741 5742 5741 5741 5742 5742 5742 5741 5740 5741 5740 5739 5735 5733 5731 5730 5730 5728 5727 5726 5725 5724 5723 5722 5722 5721 5720 5718 5717 5716 5714 5713 5712 5710 5709 5708
5744 5744 5742 5740 5741 5740 5740 5739 5739 5738 5739 5739 5739 5738 5739 5739 5738 5737 5738 5734 5731 5729 5728 5727 5726 5725 5724 5723 5722 5722 5721 5720 5719 5718 5717 5715 5714 5713 5711 5710 5708 5707 5706
5742 5741 5740 5739 5739 5738 5737 5737 5737 5737 5737 5737 5736 5736 5736 5736 5736 5734 5735 5734 5732 5728 5726 5725 5724 5723 5722 5722 5721 5720 5719 5718 5717 5716 5715 5714 5713 5711 5710 5708 5707 5705 5704
5739 5739 5739 5739 5736 5735 5735 5735 5735 5735 5735 5734 5734 5734 5735 5733 5733 5732 5732 5731 5730 5729 5726 5723 5722 5721 5720 5719 5718 5718 5717 5716 5715 5714 5713 5712 5711 5710 5708 5707 5705 5704 5702
5738 5738 5738 5736 5734 5734 5733 5733 5734 5733 5731 5731 5733 5732 5733 5732 5731 5731 5729 5728 5727 5726 5726 5723 5721 5719 5718 5717 5716 5716 5715 5714 5713 5712 5711 5710 5709 5708 5707 5705 5704 5702 5700
5737 5737 5736 5733 5733 5732 5730 5729 5728 5728 5728 5728 5731 5731 5731 5730 5729 5728 5727 5726 5724 5723 5723 5723 5721 5719 5716 5715 5715 5714 5713 5712 5712 5710 5709 5708 5707 5706 5705 5703 5702 5700 5699
5735 5734 5735 5731 5730 5730 5728 5728 5726 5726 5726 5727 5726 5726 5728 5728 5727 5725 5725 5724 5723 5721 5720 5720 5720 5719 5717 5714 5713 5712 5711 5710 5709 5709 5707 5706 5705 5704 5703 5701 5699 5698 5697
5732 5732 5730 5730 5728 5726 5725 5724 5722 5724 5725 5724 5722 5721 5721 5721 5722 5724 5723 5721 5720 5720 5719 5718 5717 5715 5715 5715 5713 5710 5708 5707 5707 5706 5705 5704 5703 5702 5701 5699 5697 5696 5694
5729 5728 5727 5727 5726 5726 5724 5722 5720 5719 5720 5721 5721 5718 5715 5714 5717 5720 5718 5719 5717 5716 5717 5715 5714 5713 5712 5712 5711 5709 5707 5705 5705 5704 5703 5702 5701 5699 5698 5696 5695 5693 5691
5727 5725 5725 5724 5723 5723 5721 5720 5720 5719 5717 5717 5717 5716 5716 5716 5711 5712 5715 5716 5714 5713 5713 5713 5712 5710 5709 5708 5707 5706 5704 5703 5702 5701 5700 5700 5699 5697 5696 5694 5693 5691 5689
5724 5723 5722 5720 5719 5719 5718 5717 5716 5715 5716 5714 5714 5714 5712 5711 5711 5707 5705 5708 5710 5711 5710 5709 5709 5708 5707 5706 5705 5705 5702 5700 5699 5699 5698 5697 5696 5695 5694 5692 5691 5689 5687
5721 5720 5719 5717 5716 5716 5715 5714 5713 5712 5712 5711 5711 5711 5710 5708 5707 5705 5701 5701 5702 5705 5706 5706 5706 5706 5705 5705 5704 5701 5699 5698 5697 5696 5695 5694 5693 5692 5692 5690 5688 5687 5685
5718 5716 5717 5714 5714 5713 5712 5711 5710 5710 5709 5707 5706 5707 5707 5706 5705 5703 5699 5698 5698 5700 5700 5702 5703 5703 5703 5703 5701 5698 5696 5694 5693 5693 5692 5691 5690 5689 5689 5688 5686 5685 5683
5716 5714 5713 5712 5712 5711 5710 5708 5708 5707 5706 5704 5704 5702 5702 5702 5702 5700 5697 5694 5692 5693 5695 5696 5699 5700 5700 5699 5697 5694 5693 5691 5690 5689 5688 5687 5687 5686 5685 5684 5683 5681 5679
5712 5710 5709 5709 5708 5707 5706 5705 5704 5703 5703 5701 5700 5699 5698 5698 5697 5697 5695 5694 5689 5686 5688 5691 5693 5695 5695 5694 5692 5691 5690 5688 5686 5685 5684 5683 5682 5681 5681 5680 5678 5677 5676
5706 5706 5705 5704 5704 5703 5702 5701 5700 5699 5698 5696 5695 5693 5692 5693 5693 5692 5691 5690 5689 5686 5684 5688 5689 5691 5689 5690 5687 5686 5686 5683 5681 5680 5679 5679 5678 5676 5676 5675 5674 5673 5671
5701 5700 5699 5699 5699 5698 5697 5696 5696 5695 5693 5691 5690 5688 5687 5687 5687 5687 5686 5685 5684 5682 5680 5683 5685 5685 5683 5682 5682 5681 5681 5679 5679 5677 5675 5674 5673 5671 5671 5670 5669 5668 5667
5695 5695 5694 5694 5694 5693 5692 5691 5690 5690 5688 5687 5685 5684 5683 5682 5680 5680 5679 5679 5678 5678 5676 5674 5676 5678 5677 5676 5676 5675 5676 5676 5675 5673 5671 5669 5668 5667 5666 5665 5665 5664 5662
5691 5690 5689 5689 5689 5688 5687 5687 5686 5685 5684 5683 5681 5679 5678 5676 5674 5674 5672 5672 5672 5672 5671 5669 5670 5670 5670 5671 5670 5670 5670 5669 5670 5670 5667 5665 5664 5663 5662 5661 5660 5659 5657
5686 5685 5684 5684 5684 5683 5683 5682 5681 5680 5679 5678 5677 5675 5673 5671 5668 5666 5665 5664 5663 5663 5663 5663 5663 5664 5664 5664 5663 5662 5663 5664 5664 5666 5664 5662 5661 5659 5658 5656 5655 5654 5652
5682 5681 5679 5679 5679 5679 5678 5676 5676 5675 5674 5673 5672 5671 5669 5665 5661 5659 5659 5658 5656 5656 5656 5656 5656 5656 5655 5654 5655 5655 5655 5657 5659 5659 5658 5659 5658 5658 5656 5652 5650 5648 5647
5677 5676 5674 5674 5673 5673 5669 5667 5667 5669 5669 5668 5667 5666 5663 5660 5656 5652 5650 5649 5648 5648 5648 5648 5649 5649 5648 5649 5648 5648 5648 5649 5649 5652 5651 5652 5654 5653 5652 5650 5647 5644 5642
5671 5670 5669 5669 5667 5665 5661 5660 5660 5661 5663 5663 5661 5659 5658 5657 5651 5649 5645 5642 5642 5640 5639 5640 5642 5642 5642 5643 5641 5641 5641 5641 5641 5644 5643 5645 5647 5646 5646 5646 5642 5640 5637
5665 5664 5663 5663 5661 5659 5655 5654 5654 5656 5657 5657 5655 5653 5651 5649 5647 5643 5642 5640 5639 5638 5636 5636 5636 5637 5638 5636 5634 5635 5635 5636 5637 5640 5639 5638 5641 5640 5642 5640 5637 5635 5633
5659 5659 5658 5657 5655 5653 5649 5648 5647 5652 5652 5652 5650 5648 5646 5643 5638 5635 5636 5635 5634 5633 5632 5630 5630 5629 5629 5629 5629 5630 5631 5632 5632 5634 5635 5634 5635 5635 5636 5636 5633 5631 5629
5655 5654 5652 5651 5650 5648 5644 5642 5641 5647 5647 5647 5645 5643 5639 5637 5632 5629 5631 5631 5629 5629 5630 5629 5626 5625 5626 5626 5624 5625 5627 5628 5628 5629 5631 5628 5629 5628 5629 5630 5630 5628 5626